Wind_Speed
27 25 24 22 18 15 12 11 10 9 8 8 8 8 9 11 13 14 14 13 12 11 11 10 10 10 10 10 11 11 11 11 11 12 12 13 13 14 14 13 13 13 13 13 14 15 14 14 16 16 15 15 15 15 15 15 14 15 15 15 15 14 14 13 13 13 12 12 12 11 12 11 11 11 10 9 8 8 8 8 7 6 6 6 7
23 22 22 21 19 15 12 11 10 8 8 8 7 8 9 11 12 13 12 12 11 11 10 9 8 8 9 9 10 10 11 11 11 11 12 12 13 13 14 14 13 13 13 13 14 14 14 14 14 15 15 15 15 15 14 14 14 14 14 14 14 14 13 13 12 12 12 12 11 11 11 10 10 9 8 7 8 8 8 8 7 7 7 7 8
19 20 19 19 18 15 13 12 10 9 8 8 8 9 9 10 11 11 11 11 11 10 10 9 8 8 8 8 9 9 10 11 11 11 11 12 12 12 13 14 14 14 14 12 13 13 13 14 14 14 15 14 15 14 14 14 13 13 14 14 13 13 13 12 12 11 11 11 11 10 10 9 9 9 8 8 9 10 10 10 10 10 10 11 11
18 18 18 18 17 15 14 13 12 10 9 9 8 8 9 10 10 10 10 10 10 10 9 8 8 7 7 7 8 8 9 9 10 11 11 11 11 12 13 14 14 14 14 13 12 12 12 13 13 13 14 13 13 13 13 13 13 12 13 13 13 12 12 12 12 11 11 11 10 10 10 9 9 9 10 11 12 12 13 14 14 14 14 15 14
18 17 16 16 15 15 15 14 13 11 10 9 9 8 9 9 9 9 9 9 9 9 9 8 8 7 7 7 7 8 8 8 9 10 10 10 11 12 12 13 14 14 13 13 12 12 11 12 13 13 13 13 12 13 13 13 12 12 12 12 12 12 12 11 11 10 10 10 10 9 9 9 10 11 13 14 16 16 17 18 19 19 19 18 17
17 16 15 15 14 14 14 15 13 12 11 10 9 9 9 10 10 9 9 9 9 9 9 8 8 7 7 6 6 7 8 8 8 9 9 10 11 12 12 12 14 14 13 12 12 11 11 11 12 12 12 12 12 12 12 13 12 11 11 11 11 11 11 10 9 9 10 10 10 9 9 11 12 14 16 18 19 20 21 22 22 22 21 21 20
17 16 15 15 14 14 15 15 13 12 11 10 9 9 9 10 10 10 9 9 9 9 8 8 7 7 7 6 6 6 7 8 8 9 9 9 10 12 12 12 13 13 12 12 12 11 11 10 11 11 12 12 11 11 12 12 11 11 10 10 10 10 10 9 8 9 10 11 11 11 12 15 17 18 20 21 21 22 23 23 23 23 22 22 21
17 16 15 15 15 14 15 14 13 12 11 10 9 9 10 9 10 9 9 9 9 8 8 8 7 7 6 6 5 6 7 8 9 9 9 9 10 11 12 12 12 11 11 12 12 11 11 10 10 10 11 11 11 11 11 11 11 10 10 9 9 10 10 9 9 10 12 13 14 15 18 21 22 22 22 22 22 23 23 22 22 21 20 20 20
18 17 16 15 15 14 14 14 13 12 11 10 9 9 9 9 9 9 9 9 9 9 8 9 8 7 7 6 6 6 7 8 9 9 9 9 9 10 11 11 11 11 10 11 12 11 11 10 9 9 10 10 11 11 11 11 11 10 9 9 9 9 9 10 11 12 14 15 17 20 22 23 23 23 22 22 22 22 21 20 19 18 17 17 17
18 17 17 16 15 14 13 13 12 12 11 10 10 9 9 9 9 9 10 10 9 9 9 9 9 8 7 7 7 7 8 8 9 9 9 9 9 10 11 11 11 11 10 10 11 11 11 11 9 9 9 9 10 11 11 11 11 10 9 9 9 9 10 11 12 13 15 17 20 21 23 23 23 22 22 21 21 20 18 17 16 16 15 16 16
17 16 15 15 14 13 12 11 10 10 9 9 9 9 9 9 9 10 10 10 10 10 10 9 8 8 8 8 7 8 8 9 9 9 9 9 10 11 11 12 11 11 10 10 10 11 11 11 9 9 9 9 10 10 11 11 11 10 10 9 9 9 11 12 14 14 16 19 21 22 22 23 22 22 21 20 18 17 16 16 15 15 15 15 15
15 14 13 12 11 10 9 9 8 8 8 8 8 9 9 10 10 10 10 11 11 10 10 10 9 9 9 8 8 9 8 9 9 9 9 9 10 11 12 12 12 11 10 10 10 10 11 11 10 9 9 9 10 10 11 11 11 11 10 9 9 10 11 13 15 16 18 20 21 22 22 22 21 20 18 17 17 16 16 16 16 16 16 16 15
13 12 11 9 8 7 7 8 8 8 8 9 9 9 10 11 11 11 11 12 12 11 10 10 10 10 10 9 10 10 9 9 10 10 10 9 11 12 12 13 13 11 11 10 10 10 11 11 10 10 9 9 9 9 10 11 11 11 10 10 10 10 12 14 17 18 19 21 21 21 21 20 19 18 16 16 17 17 17 16 16 16 16 15 15
11 10 9 8 7 7 7 7 8 8 9 9 9 10 11 11 11 11 12 12 12 11 10 10 10 10 10 9 10 10 10 10 10 10 11 11 11 12 13 13 13 11 11 10 11 11 11 10 11 11 10 9 9 9 9 10 11 11 11 10 11 11 13 17 19 19 20 20 20 20 20 18 17 16 17 17 18 17 17 17 16 16 15 14 14
11 9 8 7 6 6 6 7 7 8 8 8 8 9 10 11 11 12 12 12 12 11 11 11 11 11 11 10 10 10 9 9 11 11 11 11 12 12 13 13 13 11 11 10 10 11 10 11 11 11 10 10 9 10 10 10 10 11 11 11 12 14 17 19 20 20 20 20 20 19 17 16 16 17 18 18 18 17 17 16 16 15 15 14 14
10 8 7 6 6 6 6 7 7 7 8 8 8 8 9 10 11 11 11 11 12 10 9 10 11 11 12 11 10 10 10 10 11 11 11 11 13 13 13 13 13 12 11 10 10 11 11 11 11 11 10 9 10 11 11 11 11 11 12 12 15 17 19 20 21 20 20 19 18 16 16 16 17 18 18 18 17 17 16 16 16 15 15 14 14
8 7 7 6 7 7 7 7 7 7 7 8 7 8 9 10 10 10 11 12 12 10 9 9 11 12 12 11 10 10 11 13 13 12 11 12 15 15 14 14 13 12 11 11 11 12 12 12 11 10 10 10 11 12 12 12 12 12 14 15 17 19 20 21 21 20 19 18 16 16 16 17 18 18 18 17 17 17 17 16 16 15 14 14 14
7 6 6 7 7 8 7 7 7 7 7 7 7 7 9 9 10 10 11 12 12 10 9 9 10 11 11 10 10 11 12 14 14 13 13 15 16 16 15 14 13 12 12 13 13 13 12 12 11 11 11 11 12 13 13 13 13 15 17 18 19 20 21 21 20 19 17 16 16 16 17 17 18 18 17 17 17 17 17 16 15 14 13 13 13
6 6 6 7 9 8 8 7 7 7 6 6 6 6 7 8 8 9 10 11 10 9 10 10 10 10 10 11 12 13 14 14 15 14 15 16 16 16 15 14 14 14 13 14 14 13 12 12 12 11 10 10 11 13 14 14 16 18 19 20 21 21 21 21 19 18 16 16 17 17 17 18 18 18 18 18 18 17 16 15 14 13 12 12 13
6 6 8 8 9 8 7 7 6 5 5 5 5 6 6 7 7 8 9 9 9 9 11 11 10 10 10 12 14 14 15 15 15 16 17 17 16 16 16 15 15 14 14 14 13 13 12 12 11 11 10 11 12 14 15 16 18 19 21 21 21 21 21 20 18 16 17 17 17 17 17 18 18 18 17 17 17 16 15 13 13 12 12 13 13
5 6 8 8 8 8 7 6 6 5 4 4 5 5 6 7 7 8 8 7 7 7 11 11 10 11 12 12 15 16 16 16 17 18 19 18 17 17 16 16 15 15 14 14 13 13 12 11 11 11 11 12 14 15 15 17 19 21 22 22 21 21 20 18 17 17 17 17 17 17 18 18 17 16 16 15 15 15 14 13 13 12 12 14 15
5 6 7 8 8 8 8 7 5 4 4 4 5 5 5 6 6 6 6 5 4 5 9 13 12 13 14 14 16 17 17 17 17 19 19 18 18 17 16 16 16 15 15 14 13 13 13 12 11 11 12 13 15 15 14 17 20 22 23 22 21 20 19 17 17 18 18 18 18 17 17 16 15 14 14 14 14 14 13 13 13 13 14 16 17
6 6 7 8 8 8 8 7 5 4 4 4 5 5 5 5 5 5 5 4 5 5 8 13 15 15 17 17 17 18 18 18 18 19 19 19 18 17 17 17 16 16 14 14 13 13 12 11 11 11 12 14 15 14 15 19 21 23 22 21 20 19 17 17 17 18 18 18 17 16 15 14 13 13 13 14 14 14 14 14 15 16 16 17 17
7 7 7 8 8 8 7 6 6 5 5 5 5 6 5 5 5 5 5 6 6 7 7 11 16 17 18 19 19 19 20 20 20 21 19 18 18 17 17 17 16 16 15 13 13 13 12 11 11 12 13 15 16 16 18 21 22 22 22 21 20 18 17 17 18 19 18 17 16 14 14 13 13 13 13 14 14 15 15 16 17 17 17 17 18
7 7 7 8 7 7 7 7 6 6 7 7 7 7 7 7 7 6 6 7 8 8 8 10 14 16 16 18 19 19 20 20 21 21 19 17 17 18 17 17 17 16 15 14 13 13 12 11 11 13 15 16 18 19 21 22 22 22 21 20 18 17 17 18 19 19 17 15 14 13 13 13 13 13 14 15 16 16 17 18 18 17 17 18 18
7 8 8 8 7 7 8 8 7 6 7 9 9 8 7 8 8 8 9 9 10 11 11 12 14 15 15 17 18 19 20 21 21 20 19 18 18 18 17 17 16 16 15 14 13 12 11 11 12 14 16 17 19 22 22 22 22 22 21 19 17 17 18 19 18 17 15 14 13 14 14 14 14 14 16 17 17 18 18 18 17 17 17 18 18
8 8 8 8 7 7 8 8 7 7 7 9 10 8 8 9 9 10 11 12 13 13 14 15 16 17 17 19 20 20 21 21 20 19 19 19 19 18 17 16 16 15 14 13 13 12 11 10 12 15 16 18 20 23 23 22 21 21 20 18 17 18 19 18 17 15 14 14 14 14 14 14 15 16 18 18 18 18 18 17 17 17 17 17 18
8 7 8 8 7 8 8 8 8 7 8 9 9 9 8 9 10 11 13 14 15 16 17 18 18 19 20 21 21 21 21 20 19 19 19 19 18 17 17 16 16 15 14 13 13 12 10 11 13 15 16 18 21 23 23 22 21 21 19 18 17 18 19 17 15 14 14 14 15 15 15 15 16 17 18 19 18 18 17 16 17 16 16 17 17
8 8 8 8 8 8 9 8 8 8 8 9 10 10 10 10 11 13 15 16 17 17 18 19 19 20 21 21 21 21 20 19 18 18 18 17 17 17 17 16 16 15 13 13 13 12 11 11 14 15 16 20 22 23 23 22 21 20 19 18 18 18 18 16 14 13 14 15 16 16 16 17 17 18 18 18 18 17 17 17 16 16 16 16 16
8 8 8 9 9 9 9 9 9 8 8 9 10 11 12 11 13 14 16 17 18 18 19 19 20 20 20 21 21 20 19 18 17 16 16 16 16 16 16 16 15 14 13 13 13 14 12 13 15 15 17 20 22 23 23 22 21 20 18 18 18 18 17 15 14 14 15 16 16 17 17 17 16 17 17 17 17 17 17 16 15 15 15 15 15
8 8 9 9 9 9 9 9 9 9 9 9 10 12 13 13 14 15 17 18 18 18 18 18 19 19 19 19 19 19 18 17 16 16 15 15 15 15 15 15 14 14 13 13 14 15 14 14 15 16 18 21 22 22 22 21 20 18 18 18 18 17 16 14 14 15 16 16 17 17 17 16 15 15 16 16 16 17 16 15 15 14 14 14 14
7 8 9 9 9 10 10 9 9 9 10 10 11 12 13 14 15 16 17 17 18 18 17 17 17 18 18 19 18 18 18 17 17 16 15 15 15 15 15 14 13 13 13 13 14 15 15 15 15 17 20 21 21 21 21 20 19 17 17 17 17 17 15 14 15 16 17 17 17 17 16 15 14 14 14 15 15 15 15 14 13 13 12 12 12
7 8 9 8 10 12 11 10 10 10 10 11 11 13 14 14 16 17 17 17 18 18 17 16 16 16 17 18 18 18 18 18 17 16 16 15 15 15 14 14 13 12 12 13 14 15 16 16 16 18 21 22 21 21 20 19 18 17 16 17 17 16 15 15 16 17 17 17 16 15 14 14 13 14 14 14 14 14 13 12 12 11 11 11 11
6 6 8 9 10 12 11 11 10 10 10 10 11 13 14 14 16 17 18 17 17 17 16 15 15 16 16 17 17 17 18 17 17 16 16 15 14 14 14 13 13 12 12 13 13 14 15 16 18 20 22 22 21 20 19 18 16 15 15 16 17 16 15 15 16 17 17 16 15 14 13 13 13 13 14 13 12 12 11 11 10 10 10 10 10
7 6 7 9 10 12 12 11 10 10 10 10 11 13 14 14 15 17 18 18 17 16 15 14 14 15 16 15 16 16 16 16 16 16 15 15 14 14 13 13 12 12 13 13 13 14 15 17 20 21 21 21 20 19 18 16 15 14 14 15 16 15 14 15 16 16 16 15 15 14 13 13 13 13 12 11 11 11 10 10 9 9 9 9 9
7 6 7 8 10 11 12 11 10 10 10 10 11 12 14 15 15 16 17 18 18 16 15 14 13 14 14 15 14 14 14 14 14 14 14 14 13 13 12 12 12 13 13 12 12 14 15 18 21 21 21 20 19 18 16 15 14 13 13 14 15 14 13 13 14 15 15 15 14 14 13 13 12 12 11 10 10 10 9 9 9 8 8 7 8
6 6 6 6 8 10 11 11 11 10 10 10 10 11 13 14 15 16 17 17 17 16 15 14 14 13 14 14 13 12 12 12 12 12 12 12 12 12 12 12 13 14 13 13 13 14 15 18 20 20 20 19 18 17 16 15 14 13 12 13 14 14 13 12 13 14 14 13 13 13 13 13 12 11 10 9 8 7 7 7 7 7 7 7 7
7 7 6 6 7 9 10 11 11 11 10 10 10 11 12 13 15 16 16 16 16 15 15 14 14 14 14 13 12 11 11 10 10 11 12 12 12 12 13 13 14 14 14 14 14 15 15 16 18 20 19 18 17 16 15 15 15 14 12 12 13 13 12 12 12 13 13 12 12 12 13 12 11 10 9 8 6 5 5 5 6 6 5 6 6
7 7 6 6 8 8 9 10 11 11 11 11 10 10 11 11 13 15 16 16 15 14 15 15 15 14 14 13 12 12 10 10 10 11 12 12 12 12 13 14 14 14 14 14 15 16 16 16 17 18 18 16 16 15 14 14 14 14 13 13 13 12 12 11 11 11 11 11 11 11 12 12 11 10 8 6 4 3 2 3 4 4 4 5 6
7 6 6 6 8 8 8 9 9 10 10 11 10 10 9 10 11 13 14 15 14 14 14 15 15 14 14 14 13 12 11 10 10 11 11 11 11 11 12 14 14 14 14 14 14 15 16 15 15 15 15 14 14 14 13 12 13 13 13 13 13 12 12 11 11 10 10 9 9 10 10 11 11 9 7 5 3 1 0 1 2 3 4 5 7
9 7 6 6 7 7 7 8 8 9 9 10 10 9 8 8 9 10 12 13 14 14 14 14 15 14 14 14 13 13 12 11 10 10 9 10 10 11 12 14 15 14 14 14 14 15 16 14 13 12 12 12 13 13 13 12 11 12 12 12 12 12 11 10 9 9 8 8 8 8 8 9 9 9 6 4 2 2 2 3 3 4 5 6 7
11 8 7 7 7 7 8 8 8 8 9 10 10 10 9 8 9 10 11 12 13 14 14 14 14 15 15 14 14 13 13 12 12 11 10 10 11 11 12 13 14 14 14 14 14 14 14 13 12 11 10 11 11 12 12 11 11 12 11 11 11 11 10 9 8 8 7 8 9 8 6 7 7 7 6 3 1 2 3 4 4 5 6 6 6
12 10 10 9 8 8 9 9 8 9 10 11 11 11 10 10 11 10 10 11 13 14 15 15 15 15 15 15 15 14 13 13 12 11 11 11 10 11 12 13 13 13 13 13 13 13 13 12 11 10 11 11 9 11 12 11 12 12 11 10 10 10 10 10 10 10 9 9 10 9 6 5 5 6 6 4 1 1 4 5 5 6 7 7 7
14 13 12 10 9 9 9 9 10 9 10 11 12 12 12 12 13 12 12 12 13 14 15 16 16 16 16 15 15 14 14 13 12 11 11 10 10 10 11 12 12 13 13 13 13 13 12 11 10 10 11 9 8 11 13 12 11 10 9 8 9 9 9 9 9 10 11 11 10 9 7 6 4 5 5 3 1 2 5 7 7 7 7 7 8
15 15 13 11 10 9 9 10 11 10 10 11 12 13 14 14 14 13 12 12 13 13 14 15 16 15 15 14 14 14 14 12 11 11 11 10 10 9 9 10 11 11 12 12 12 12 11 10 10 10 10 8 7 10 12 10 9 8 8 7 7 8 8 8 8 8 9 10 9 8 7 7 5 4 3 2 3 4 4 6 6 7 8 8 9
14 14 14 13 12 11 10 10 11 11 11 12 12 13 14 14 13 12 10 9 10 11 12 13 14 15 15 14 14 13 13 12 11 11 11 10 10 9 9 9 10 11 11 11 11 11 10 10 10 10 10 8 7 9 10 9 7 7 6 5 6 7 7 8 8 7 7 7 8 7 7 6 5 3 1 2 2 3 4 6 7 8 9 10 11
13 14 15 15 14 13 11 11 11 11 12 11 11 12 12 13 13 12 11 10 11 12 12 13 13 14 14 14 13 12 12 11 11 10 10 10 9 9 9 9 10 10 10 10 10 10 10 10 9 9 9 8 7 8 10 9 8 6 6 5 6 7 8 8 7 7 7 6 6 6 5 4 3 3 2 1 2 4 6 8 9 10 11 12 13
13 15 16 16 16 14 13 12 12 12 12 12 11 11 11 11 12 13 13 13 13 13 13 14 14 14 14 13 13 12 11 10 9 9 9 8 9 8 8 9 9 9 10 10 10 10 9 9 9 9 9 8 8 9 10 10 8 8 7 6 7 7 8 8 7 6 6 6 5 5 4 3 3 4 4 4 5 7 8 10 11 12 13 13 14
13 15 16 16 16 16 15 15 14 14 13 12 12 11 11 11 12 14 14 14 14 14 14 14 13 14 14 13 12 12 11 10 9 8 8 8 8 9 9 9 10 10 10 10 9 9 8 9 9 9 9 9 9 11 11 9 8 9 9 8 8 9 9 9 8 7 8 8 8 7 7 7 7 7 7 7 8 9 11 12 13 15 14 14 15
13 14 16 17 18 17 17 17 16 15 14 13 13 12 12 12 13 13 14 14 14 14 14 14 13 13 13 12 12 11 10 10 9 8 8 8 8 9 9 9 10 9 9 9 9 8 8 9 9 10 10 9 10 12 12 10 8 9 9 9 9 10 10 10 10 9 10 10 10 10 10 10 11 11 11 11 12 12 13 14 16 16 16 16 16
14 14 17 18 19 19 18 17 17 16 15 14 14 13 13 13 13 13 14 14 13 12 13 13 13 13 12 12 11 11 10 9 9 9 8 8 8 9 9 8 9 9 9 9 8 8 8 8 9 10 10 10 10 12 12 11 9 9 10 10 10 10 11 11 10 10 11 12 12 12 12 12 13 13 14 14 15 15 16 17 17 18 17 17 16
Wind_Direction
167 166 167 171 168 156 147 140 134 134 136 131 125 127 134 139 142 141 141 138 136 138 135 128 119 116 115 114 110 106 102 100 102 108 114 120 121 120 122 125 129 131 129 125 118 114 114 112 111 112 111 108 107 105 103 102 100 100 99 98 98 98 97 96 95 95 94 94 92 89 85 84 83 84 81 79 77 78 80 80 80 71 64 72 79
167 170 171 176 176 169 162 153 149 153 152 143 134 134 138 140 142 142 143 140 140 141 138 133 124 117 114 114 111 106 102 99 99 105 112 116 119 120 122 125 133 133 129 125 119 116 115 110 108 109 109 107 105 103 102 101 99 98 97 96 96 96 95 94 94 94 93 91 88 86 85 83 81 79 73 69 68 68 70 70 73 69 68 80 87
160 166 168 175 179 177 174 168 166 168 162 153 143 139 140 140 141 142 143 144 144 145 143 139 132 123 118 118 114 109 104 101 101 105 110 115 119 122 126 130 135 133 128 126 120 117 115 110 107 108 107 106 105 103 100 99 98 96 95 94 93 92 92 91 91 90 89 87 86 85 84 81 77 73 66 64 64 66 71 74 77 77 83 87 91
154 158 161 167 172 174 176 177 177 177 169 162 155 150 147 147 147 148 150 151 150 150 149 146 143 136 129 125 120 115 108 104 100 102 109 117 124 129 131 135 136 132 129 128 123 118 115 111 108 107 106 107 107 104 100 97 95 93 93 93 92 91 89 88 87 85 84 84 83 83 82 77 70 67 68 70 74 78 81 83 84 86 89 90 93
154 157 161 165 169 171 175 179 182 179 174 171 168 167 164 164 163 163 165 162 159 158 158 155 151 145 137 132 127 120 111 106 103 104 113 123 130 133 135 137 135 131 131 130 126 120 117 113 109 108 108 110 109 105 101 96 92 89 89 90 90 89 88 85 83 84 84 84 83 81 79 74 68 70 77 82 85 87 88 88 88 89 90 91 92
153 159 165 170 174 175 177 179 181 179 177 178 178 177 176 177 178 179 179 174 169 168 166 162 157 152 147 143 134 125 118 117 115 114 119 127 133 135 136 139 137 136 135 129 125 123 121 116 112 111 111 111 109 104 99 95 92 89 87 86 86 85 85 84 82 82 83 83 82 80 79 79 79 83 89 92 92 91 90 89 89 89 89 89 89
156 162 169 173 176 176 176 177 178 179 180 181 179 178 177 178 180 182 182 178 175 174 172 169 166 161 160 157 146 135 131 133 130 124 122 128 135 137 138 140 140 140 136 129 128 128 123 117 115 113 111 109 106 102 97 95 92 88 85 84 83 82 82 83 85 85 83 82 82 83 87 90 91 93 96 96 95 93 91 90 89 89 89 88 88
157 163 167 171 174 173 173 175 177 179 181 180 174 172 175 176 178 183 183 181 181 183 182 180 181 176 174 169 161 155 145 144 141 132 127 129 136 137 139 143 142 142 139 135 134 130 124 121 118 113 109 108 106 101 96 95 91 86 82 79 79 81 79 80 87 87 84 83 86 92 96 98 97 97 98 97 96 94 92 91 91 90 90 90 90
152 155 157 160 163 165 168 171 174 176 177 176 174 176 179 183 186 192 192 191 192 193 191 190 193 185 179 181 178 172 157 149 145 141 136 133 135 137 140 143 144 145 144 140 136 133 128 126 123 115 109 109 108 102 98 94 89 85 82 80 78 77 76 81 86 85 86 91 95 98 100 101 101 100 99 97 95 94 92 92 92 92 93 94 94
148 149 150 152 154 157 162 165 169 173 177 180 183 187 189 194 198 202 201 200 202 199 197 196 193 183 179 184 182 176 163 154 151 149 145 138 139 142 142 144 146 147 147 143 138 137 133 129 126 118 113 111 107 103 100 95 89 87 87 84 79 74 77 85 87 87 93 99 101 101 102 102 102 101 100 98 96 94 93 93 94 96 97 97 96
148 149 149 151 154 156 160 165 171 178 185 190 193 197 201 205 209 210 208 207 211 205 197 198 192 180 180 183 180 176 165 158 159 156 151 148 146 147 147 145 144 142 143 143 138 136 131 128 126 119 117 114 108 105 100 95 92 92 92 88 80 77 82 87 90 94 99 103 103 104 104 104 103 102 100 98 96 96 95 95 97 98 97 95 94
149 149 151 154 157 160 165 172 180 189 194 200 202 208 215 218 219 216 215 214 217 207 191 196 195 185 182 184 181 174 167 162 162 161 158 156 152 150 151 145 141 140 139 139 136 132 127 125 124 121 119 117 113 107 100 96 95 94 92 87 81 82 87 92 96 100 103 104 105 105 105 104 103 102 100 98 97 96 96 96 97 96 93 92 91
150 152 157 161 167 173 179 184 190 195 196 202 207 214 221 224 222 217 220 221 219 207 189 193 193 186 182 183 180 172 169 167 164 165 162 159 155 152 154 148 143 142 137 136 134 127 122 122 124 124 123 122 117 109 100 97 99 99 94 88 85 87 93 98 102 104 105 106 107 106 105 105 103 101 100 99 97 96 96 96 95 93 90 89 88
155 161 168 173 184 193 198 197 198 200 201 205 209 216 220 220 215 213 218 219 217 207 193 193 190 182 180 181 178 172 172 169 169 170 165 157 154 155 155 149 143 140 135 134 131 125 122 124 126 124 126 127 121 111 102 100 102 102 97 93 92 95 102 104 105 107 107 108 108 107 105 103 101 101 100 98 97 96 95 92 90 87 85 83 82
163 172 181 188 196 204 210 205 202 203 204 205 208 213 213 212 210 212 215 215 216 203 189 192 189 180 175 177 176 174 175 171 170 169 165 156 153 157 155 147 141 138 136 135 131 127 127 127 125 124 127 131 126 114 103 100 100 98 95 92 95 101 107 108 109 110 110 111 109 107 104 102 102 101 99 97 95 92 88 85 81 78 76 75 75
170 180 189 197 200 204 208 204 200 196 196 200 203 205 205 207 207 212 213 215 217 199 186 187 184 181 174 174 174 173 175 167 163 161 160 157 156 157 152 145 141 139 139 138 136 133 131 128 125 126 128 129 124 115 107 103 100 99 97 96 99 104 108 109 111 112 113 112 108 105 103 103 102 100 97 94 90 86 82 78 75 74 74 75 76
174 182 189 194 198 194 194 193 189 186 188 194 197 199 201 204 205 209 211 214 215 197 189 189 180 177 172 173 171 166 167 162 159 158 161 162 160 154 148 145 141 139 140 139 139 135 131 128 126 125 125 124 121 115 110 108 106 105 102 102 105 108 110 112 114 115 114 110 106 103 103 103 100 97 93 90 85 81 78 76 74 75 76 78 78
175 178 180 183 185 180 177 178 179 179 181 188 194 198 199 200 202 207 211 214 212 194 184 192 185 173 168 170 166 160 159 159 158 159 163 164 157 148 145 144 139 137 137 136 135 132 128 126 124 122 122 123 120 113 110 111 109 106 104 105 108 110 113 114 115 116 113 107 104 104 103 101 97 93 89 86 83 80 78 77 77 78 79 81 81
168 165 162 162 165 165 166 168 172 176 180 189 195 199 199 199 202 209 216 217 212 185 170 189 187 168 165 163 160 159 157 158 160 159 160 158 150 144 143 142 138 136 136 134 132 130 127 124 121 118 118 118 114 109 111 112 108 105 105 107 110 112 115 116 117 114 109 105 105 104 101 96 92 89 86 84 82 80 79 78 80 82 83 85 85
156 152 149 149 152 154 158 163 169 176 185 193 196 201 200 200 204 210 219 220 208 170 159 179 175 159 163 161 156 158 157 158 161 158 155 152 146 142 142 141 137 136 135 132 129 127 125 121 117 113 110 109 107 109 112 110 106 105 107 109 112 114 116 117 116 112 108 106 104 101 96 92 89 87 85 83 82 81 80 80 81 83 86 89 91
142 146 146 145 148 152 153 156 164 169 177 182 187 190 189 195 200 202 210 216 202 163 155 159 158 159 161 155 149 152 155 155 157 155 152 148 142 140 141 138 136 135 133 130 128 127 123 119 115 109 106 105 105 108 111 111 109 108 109 112 114 116 118 117 115 110 108 105 101 97 93 91 88 86 84 84 83 83 82 82 83 84 90 96 98
130 143 149 150 148 148 147 147 152 153 156 164 172 172 175 185 188 186 191 197 179 156 150 142 145 153 149 145 146 150 154 152 152 152 149 143 140 139 139 136 135 135 133 132 132 129 124 121 116 110 108 105 105 108 112 113 112 110 112 114 116 119 119 117 113 110 106 102 98 95 92 90 87 86 86 86 87 86 85 85 87 91 98 102 102
126 138 149 150 147 143 140 142 142 139 138 142 155 156 159 164 159 159 163 168 158 152 145 136 138 141 139 141 145 148 150 151 151 148 145 141 140 139 138 138 137 135 134 134 133 128 124 122 118 113 112 109 110 115 116 115 113 112 114 117 120 122 119 116 113 108 103 99 97 95 92 89 88 88 89 90 89 88 88 90 95 100 103 103 100
126 131 142 146 145 139 134 136 135 128 123 123 130 131 133 137 135 138 143 150 150 147 140 131 131 134 137 138 141 145 147 148 147 145 143 141 140 139 139 140 138 136 135 133 129 125 122 121 117 114 114 113 116 122 119 115 114 114 118 122 124 122 118 115 110 104 100 98 97 94 91 90 90 91 92 91 90 90 92 97 101 103 102 100 98
128 126 135 143 143 138 132 131 130 127 124 121 121 121 124 126 125 126 129 138 141 139 133 123 122 127 131 132 136 141 141 142 142 142 141 139 139 139 140 141 139 136 134 132 128 124 123 120 117 117 115 116 121 123 118 115 116 119 123 126 124 120 116 112 106 102 99 97 95 93 92 92 93 94 94 93 93 94 98 100 102 101 101 99 97
129 129 133 141 144 140 135 133 131 132 133 127 121 120 124 124 123 124 126 131 134 133 131 126 123 124 125 126 130 134 134 136 138 140 139 140 141 141 142 141 138 135 134 132 129 126 125 120 117 116 114 118 123 120 116 116 119 123 126 126 123 118 114 108 105 101 98 96 94 93 94 94 96 97 97 97 97 99 101 102 102 101 101 98 95
130 131 132 138 143 142 136 133 134 138 139 133 126 122 125 126 126 127 127 128 131 131 130 129 127 127 126 127 129 131 132 135 138 141 142 144 145 144 143 140 137 135 134 131 127 127 126 121 118 115 115 121 123 119 117 119 122 125 126 125 121 117 112 107 104 100 97 95 95 96 96 97 100 101 100 101 101 102 102 103 102 101 99 96 92
132 131 131 137 140 141 137 133 134 138 139 136 133 128 128 129 129 129 127 128 131 131 130 129 128 128 129 129 130 132 134 137 140 143 144 146 145 144 143 140 138 136 134 130 128 130 128 123 119 117 120 125 125 121 120 122 124 127 128 126 121 116 112 108 103 98 96 97 98 99 100 102 104 104 103 103 103 103 104 104 103 101 98 93 87
133 130 128 132 137 140 139 136 134 136 135 136 136 131 129 131 131 131 129 130 134 133 130 129 129 130 131 132 133 135 137 140 143 145 146 148 147 146 145 142 139 135 134 132 131 130 126 122 121 121 127 130 128 125 125 126 128 130 130 127 122 117 113 108 100 95 97 98 100 102 104 106 105 104 104 104 105 106 107 106 104 102 97 91 84
136 130 129 130 137 141 138 136 135 135 133 134 135 132 131 132 133 133 131 132 134 133 131 130 131 133 135 137 138 140 142 143 145 147 148 149 148 147 145 142 139 137 137 136 133 130 127 125 124 128 134 134 131 130 129 130 132 132 131 128 123 119 114 106 99 96 97 100 103 105 106 106 105 104 105 106 108 110 111 109 107 103 97 91 85
139 132 133 134 140 142 138 137 135 135 135 131 132 132 133 134 137 137 134 133 134 133 132 132 133 136 138 140 142 144 144 144 144 146 146 146 146 145 144 143 142 142 140 137 134 132 131 131 131 136 140 137 134 133 132 133 135 135 132 129 125 121 115 106 100 100 100 103 106 107 106 105 104 104 106 110 113 114 114 113 110 105 100 93 86
145 137 136 135 141 144 139 138 138 137 136 132 130 132 135 138 140 140 137 137 136 134 132 132 133 136 138 140 143 145 145 145 145 146 146 145 145 144 144 145 144 143 141 139 137 135 136 138 141 144 144 140 137 136 136 138 139 137 134 131 128 123 115 106 102 103 104 106 108 108 106 103 104 105 109 114 117 117 116 113 110 105 100 92 83
155 143 139 135 140 145 141 138 140 139 137 133 130 130 134 142 145 142 139 140 138 136 133 132 134 136 138 141 143 145 146 147 148 148 146 145 144 144 145 145 144 144 143 141 139 139 138 142 149 148 144 141 140 140 140 141 141 138 136 133 130 125 115 107 105 106 106 108 109 108 105 102 103 109 114 118 119 117 113 109 105 100 93 82 73
161 147 137 134 138 144 143 141 141 140 139 135 132 130 133 143 149 145 141 141 141 138 136 135 137 139 142 143 144 147 148 149 149 147 144 143 144 145 146 144 143 144 144 140 139 140 140 146 154 150 145 144 143 143 143 143 141 140 137 134 131 127 116 109 108 109 109 110 111 110 104 100 104 112 119 120 117 112 107 101 96 89 80 71 62
159 156 144 138 140 144 143 141 141 141 141 139 135 131 133 141 148 147 143 143 143 140 139 139 140 143 146 146 145 146 147 147 146 145 144 145 146 146 147 146 144 142 142 139 137 141 146 153 156 151 147 146 144 144 144 143 141 139 138 134 133 128 118 111 112 113 112 113 113 111 105 102 106 115 119 118 112 105 97 90 84 76 67 59 51
161 163 158 147 144 146 145 141 140 142 143 141 138 135 136 141 146 148 147 147 147 145 144 144 145 146 147 146 145 145 145 146 146 146 147 147 147 146 148 150 146 142 140 137 136 142 152 158 156 150 146 145 144 144 144 142 138 137 138 136 135 132 122 114 114 115 115 116 116 113 108 105 109 116 118 114 109 103 97 90 82 72 60 47 36
168 167 166 158 152 149 147 145 143 144 144 141 140 139 141 144 147 150 151 152 151 150 150 151 152 150 148 147 146 146 146 147 148 147 147 147 147 147 150 150 145 142 140 138 139 145 152 155 152 147 146 146 147 146 147 145 140 137 140 141 140 137 126 117 116 117 118 119 119 117 112 109 113 119 119 117 113 109 104 98 87 73 56 39 22
173 174 173 167 165 159 155 153 147 147 148 144 143 145 149 152 153 154 156 158 157 155 155 155 156 153 149 148 147 145 145 147 147 146 145 144 145 148 150 148 146 146 145 144 146 148 148 150 149 148 149 151 152 151 151 151 146 143 147 148 144 139 129 120 119 120 121 123 123 120 115 112 115 121 124 125 125 117 104 92 80 66 48 27 7
173 177 179 176 178 174 167 160 152 150 152 150 148 150 155 159 161 163 164 164 164 161 159 157 155 151 148 147 147 145 145 146 144 143 143 141 141 146 148 149 150 152 151 149 149 148 146 148 151 152 154 157 157 154 151 150 149 147 149 151 148 144 136 128 124 123 124 126 127 124 120 117 119 124 132 138 137 126 94 72 59 41 24 10 357
174 183 185 186 188 184 176 170 160 156 156 154 151 149 153 160 165 168 168 166 166 163 159 157 155 152 149 148 148 147 145 143 143 144 144 142 142 148 152 154 155 156 154 150 149 148 147 149 153 156 159 162 161 155 150 149 148 146 148 151 152 149 143 139 134 129 126 127 130 130 127 123 123 127 136 148 154 165 331 9 7 354 353 356 352
175 189 191 193 196 189 184 183 172 161 156 153 150 146 147 156 161 163 165 164 162 161 160 158 157 155 153 151 150 148 146 146 146 146 145 145 147 153 159 160 159 157 155 153 150 150 149 150 157 161 163 165 163 158 154 153 149 148 150 151 153 151 147 146 143 138 134 131 133 135 136 132 128 129 134 152 189 237 267 298 320 329 336 343 344
172 193 198 194 200 195 188 190 183 167 161 158 154 149 148 152 156 158 162 162 159 158 160 162 161 159 156 153 151 150 151 151 148 147 147 148 148 154 161 164 162 159 157 156 154 154 153 155 162 167 167 164 163 164 162 160 156 152 150 149 150 150 148 150 152 154 150 144 139 136 140 143 139 134 130 133 174 264 265 277 298 310 318 327 332
170 193 202 194 198 202 193 189 188 178 172 167 158 155 157 155 154 156 160 161 162 162 162 164 165 162 158 155 153 153 155 153 149 148 148 148 147 150 158 164 166 162 161 162 161 162 162 164 169 171 170 164 165 173 172 170 167 155 147 148 150 151 153 157 162 166 166 161 154 144 137 146 153 146 137 132 119 294 277 274 286 305 314 322 323
172 186 199 198 197 204 199 190 190 187 183 177 167 165 167 164 159 159 162 166 170 170 165 163 163 162 159 156 154 155 157 155 151 151 150 149 146 146 153 161 167 167 166 168 169 171 172 174 178 178 174 168 170 179 179 181 177 157 144 151 158 160 163 165 168 173 173 170 166 160 152 152 157 157 151 140 94 334 299 282 281 301 315 321 319
174 180 193 200 200 202 201 196 192 190 191 189 181 177 175 172 168 163 162 167 171 170 165 160 159 159 158 157 156 157 157 156 155 156 155 154 149 145 151 159 165 170 171 173 172 173 177 183 187 186 181 174 173 181 184 189 182 160 151 161 172 175 178 182 182 186 186 176 169 172 174 173 173 175 159 105 34 1 330 303 296 306 314 320 325
177 182 191 197 201 202 202 202 197 192 194 197 194 188 181 176 173 169 159 153 156 159 159 157 155 156 159 159 159 158 158 158 159 160 159 157 152 150 155 160 166 171 173 173 173 174 179 186 190 191 186 179 178 185 190 193 186 171 168 178 189 191 190 195 196 199 203 193 183 186 187 186 192 202 165 76 27 348 328 323 327 330 328 326 330
181 188 192 194 198 199 200 203 202 198 197 199 200 197 188 177 173 173 165 152 153 157 158 158 158 160 163 161 160 162 162 162 162 161 160 157 154 153 157 161 165 170 173 173 175 180 184 187 192 196 191 186 192 195 194 195 193 190 195 198 200 197 190 193 203 209 214 213 205 202 197 188 200 235 276 324 311 304 313 320 330 337 334 328 328
186 193 193 194 198 198 198 200 202 203 201 198 199 201 195 182 175 175 173 165 163 163 164 164 163 162 164 164 163 164 165 165 165 163 160 160 159 159 161 162 163 168 172 175 179 185 190 191 196 200 195 193 202 206 200 197 200 206 213 212 202 200 198 197 208 220 233 243 235 224 226 238 248 258 277 297 304 306 311 318 326 330 327 322 324
192 197 196 197 201 199 197 199 199 201 202 197 198 202 199 191 184 179 179 178 174 170 171 171 168 165 166 166 165 165 167 168 169 167 164 166 168 167 166 168 169 170 173 177 180 187 194 198 199 202 200 200 205 210 210 207 208 213 220 221 207 205 211 210 213 226 246 261 260 255 258 267 274 281 292 302 309 312 314 320 326 327 325 323 326
198 201 202 202 205 203 198 198 197 196 198 198 200 204 204 201 196 187 186 189 185 178 176 175 176 174 172 171 170 171 175 176 175 175 172 170 171 172 174 174 174 175 177 179 182 187 195 198 199 203 206 208 211 215 219 219 219 217 222 224 213 214 225 224 225 237 251 260 265 269 274 281 287 294 302 305 309 312 315 320 322 322 322 324 326
207 209 207 206 209 209 203 199 197 195 196 200 202 205 206 206 204 200 197 197 195 189 182 180 183 183 181 179 176 178 184 186 183 182 181 178 173 172 177 179 177 179 183 188 190 192 195 194 196 204 209 215 219 221 226 226 222 219 221 225 220 223 235 237 236 243 251 255 257 262 269 278 285 290 295 299 304 308 311 314 315 314 314 315 317
Height
3178 3180 3181 3182 3183 3183 3184 3185 3185 3186 3187 3188 3189 3189 3190 3191 3192 3193 3193 3194 3194 3195 3195 3196 3196 3196 3196 3196 3196 3196 3196 3196 3196 3196 3196 3196 3197 3197 3197 3198 3198 3199 3199 3199 3199 3199 3199 3200 3200 3200 3200 3201 3201 3201 3201 3202 3202 3202 3202 3202 3202 3202 3202 3203 3203 3203 3203 3203 3203 3203 3203 3203 3203 3203 3203 3202 3202 3202 3202 3202 3201 3201 3201 3201 3201
3179 3181 3182 3183 3183 3184 3185 3185 3186 3187 3188 3189 3190 3191 3192 3192 3193 3194 3194 3195 3195 3195 3196 3196 3197 3197 3197 3197 3197 3197 3197 3197 3197 3197 3197 3197 3198 3198 3198 3198 3199 3200 3200 3200 3200 3201 3201 3201 3201 3201 3201 3202 3202 3202 3203 3203 3203 3204 3203 3203 3203 3203 3203 3203 3204 3204 3204 3204 3204 3204 3204 3204 3204 3204 3203 3203 3203 3202 3202 3202 3202 3202 3202 3202 3202
3180 3181 3182 3183 3184 3185 3186 3187 3187 3188 3189 3190 3191 3192 3193 3193 3194 3194 3195 3196 3196 3197 3197 3197 3198 3198 3198 3198 3198 3198 3198 3198 3198 3198 3198 3198 3198 3199 3199 3199 3200 3201 3201 3201 3202 3202 3202 3202 3203 3203 3203 3203 3203 3204 3204 3204 3205 3205 3205 3204 3204 3204 3204 3204 3205 3205 3205 3205 3205 3206 3206 3206 3205 3205 3204 3204 3203 3203 3203 3203 3203 3203 3203 3203 3203
3181 3182 3183 3184 3185 3186 3187 3188 3188 3189 3190 3191 3192 3193 3194 3194 3194 3195 3195 3196 3197 3197 3198 3198 3198 3199 3199 3199 3199 3199 3199 3199 3199 3199 3199 3199 3200 3200 3200 3200 3201 3202 3202 3202 3203 3203 3203 3204 3204 3204 3204 3204 3204 3204 3205 3205 3206 3206 3206 3206 3206 3206 3206 3206 3206 3206 3206 3206 3206 3207 3207 3207 3206 3206 3205 3204 3204 3204 3204 3204 3204 3204 3204 3204 3204
3182 3183 3184 3185 3186 3187 3188 3189 3189 3190 3191 3192 3192 3193 3194 3195 3195 3195 3196 3196 3197 3198 3198 3199 3199 3199 3199 3200 3200 3199 3199 3199 3200 3200 3200 3201 3201 3201 3201 3202 3202 3202 3202 3203 3203 3204 3205 3205 3205 3206 3206 3206 3206 3206 3206 3206 3207 3207 3207 3207 3207 3207 3207 3207 3207 3207 3207 3207 3207 3207 3207 3207 3207 3206 3206 3206 3205 3205 3206 3205 3205 3205 3205 3206 3206
3183 3184 3185 3186 3187 3188 3189 3189 3190 3191 3191 3192 3193 3193 3194 3195 3195 3196 3196 3197 3197 3198 3198 3199 3199 3199 3200 3200 3200 3200 3200 3200 3201 3201 3202 3202 3202 3202 3202 3203 3203 3203 3203 3204 3204 3205 3206 3206 3207 3207 3207 3207 3207 3207 3207 3207 3208 3208 3209 3208 3208 3208 3208 3208 3208 3208 3208 3208 3208 3208 3208 3208 3208 3208 3207 3207 3207 3207 3207 3207 3207 3207 3207 3207 3207
3184 3185 3186 3187 3188 3189 3189 3190 3191 3191 3192 3193 3193 3194 3194 3195 3196 3196 3197 3197 3198 3198 3198 3199 3199 3199 3200 3200 3200 3201 3201 3201 3202 3202 3202 3203 3203 3203 3203 3204 3204 3204 3205 3205 3205 3206 3207 3207 3208 3208 3208 3208 3208 3208 3208 3208 3209 3209 3209 3209 3209 3209 3209 3209 3209 3209 3209 3208 3208 3208 3209 3209 3209 3209 3209 3209 3209 3209 3209 3209 3209 3209 3209 3208 3208
3185 3186 3187 3188 3189 3189 3190 3191 3191 3192 3193 3193 3194 3194 3195 3196 3196 3197 3197 3198 3198 3198 3199 3199 3199 3199 3200 3200 3201 3201 3202 3202 3203 3203 3203 3203 3203 3203 3204 3204 3205 3205 3206 3206 3207 3207 3208 3209 3209 3209 3209 3209 3209 3209 3209 3209 3210 3210 3210 3210 3210 3210 3210 3210 3210 3210 3209 3209 3209 3210 3210 3210 3210 3211 3211 3211 3211 3210 3210 3210 3210 3210 3210 3210 3210
3186 3187 3188 3189 3189 3190 3191 3192 3192 3193 3193 3194 3194 3195 3195 3196 3196 3196 3197 3197 3197 3198 3199 3199 3199 3200 3200 3201 3201 3202 3202 3203 3203 3204 3203 3203 3203 3204 3204 3205 3206 3206 3207 3207 3208 3208 3209 3209 3210 3210 3210 3210 3210 3210 3210 3210 3211 3211 3211 3211 3211 3211 3211 3211 3211 3210 3210 3210 3211 3211 3211 3212 3212 3213 3213 3213 3212 3212 3212 3212 3211 3211 3211 3211 3211
3187 3188 3189 3190 3190 3191 3192 3192 3193 3193 3194 3194 3195 3195 3195 3195 3196 3196 3196 3196 3197 3198 3199 3199 3200 3200 3201 3201 3201 3202 3203 3204 3204 3204 3204 3204 3204 3204 3205 3206 3207 3207 3208 3208 3209 3209 3210 3210 3211 3211 3211 3211 3211 3211 3211 3211 3212 3212 3212 3212 3212 3212 3212 3211 3211 3211 3211 3212 3212 3213 3213 3213 3214 3214 3214 3214 3214 3213 3213 3213 3213 3213 3213 3213 3213
3188 3189 3190 3191 3191 3192 3193 3193 3194 3194 3194 3195 3195 3195 3195 3195 3195 3195 3195 3196 3196 3197 3199 3199 3200 3200 3200 3201 3202 3202 3203 3204 3205 3205 3205 3205 3205 3206 3206 3207 3208 3208 3209 3209 3210 3210 3211 3211 3212 3212 3212 3213 3213 3212 3212 3212 3212 3213 3213 3213 3213 3213 3212 3212 3212 3212 3213 3213 3214 3214 3214 3215 3215 3216 3216 3215 3215 3215 3214 3214 3214 3214 3214 3214 3214
3189 3190 3191 3191 3192 3192 3193 3193 3194 3194 3194 3195 3195 3195 3195 3195 3195 3195 3195 3195 3195 3196 3198 3199 3199 3200 3201 3201 3202 3203 3203 3205 3205 3206 3206 3206 3206 3207 3207 3208 3208 3209 3210 3210 3211 3211 3212 3212 3213 3213 3213 3214 3214 3213 3213 3213 3213 3214 3214 3214 3214 3214 3213 3213 3213 3214 3214 3215 3215 3216 3216 3216 3217 3217 3217 3217 3216 3216 3216 3216 3216 3216 3215 3215 3215
3190 3190 3191 3192 3192 3193 3193 3194 3194 3194 3194 3195 3195 3195 3195 3194 3194 3195 3194 3194 3194 3195 3198 3199 3199 3200 3200 3201 3202 3203 3203 3204 3205 3206 3206 3207 3207 3208 3208 3209 3209 3210 3210 3211 3211 3212 3212 3213 3214 3214 3214 3215 3215 3214 3214 3214 3214 3215 3215 3215 3215 3215 3215 3215 3215 3216 3216 3216 3217 3217 3217 3218 3218 3218 3218 3218 3217 3217 3217 3217 3217 3217 3217 3217 3217
3191 3191 3192 3192 3193 3193 3193 3194 3194 3194 3194 3194 3194 3194 3194 3194 3194 3194 3194 3194 3193 3194 3197 3198 3198 3199 3200 3201 3202 3203 3203 3204 3205 3206 3206 3207 3208 3209 3209 3210 3210 3211 3211 3212 3212 3213 3213 3214 3214 3215 3215 3216 3216 3215 3215 3215 3215 3216 3216 3216 3216 3216 3216 3216 3217 3217 3218 3218 3219 3219 3219 3219 3219 3219 3219 3219 3219 3219 3219 3219 3219 3219 3219 3219 3219
3191 3192 3192 3192 3193 3193 3193 3193 3193 3194 3194 3194 3194 3193 3193 3193 3193 3193 3193 3193 3192 3194 3197 3197 3198 3199 3200 3201 3202 3203 3204 3204 3205 3206 3207 3207 3208 3209 3210 3211 3211 3212 3212 3213 3213 3214 3214 3215 3215 3216 3216 3216 3216 3216 3216 3216 3216 3217 3217 3217 3217 3217 3217 3218 3218 3219 3219 3220 3220 3221 3221 3221 3221 3221 3221 3220 3220 3220 3220 3220 3220 3220 3220 3220 3220
3191 3191 3192 3192 3193 3193 3193 3193 3193 3193 3194 3194 3194 3193 3193 3193 3193 3193 3193 3192 3191 3194 3197 3197 3198 3199 3200 3201 3202 3203 3204 3205 3206 3207 3207 3208 3209 3210 3211 3211 3212 3213 3213 3214 3214 3215 3215 3216 3216 3216 3217 3217 3217 3217 3217 3217 3217 3217 3217 3218 3218 3218 3219 3219 3220 3221 3221 3222 3222 3222 3222 3223 3223 3222 3222 3222 3222 3221 3221 3222 3222 3222 3222 3221 3221
3191 3191 3192 3192 3193 3193 3193 3193 3194 3194 3194 3194 3194 3194 3193 3193 3193 3193 3193 3191 3191 3194 3196 3197 3199 3200 3200 3201 3202 3204 3204 3205 3206 3207 3208 3209 3210 3211 3212 3212 3212 3213 3214 3215 3215 3216 3216 3217 3217 3217 3218 3218 3218 3218 3218 3218 3218 3218 3218 3219 3219 3220 3221 3221 3222 3222 3223 3223 3223 3224 3224 3224 3224 3224 3223 3223 3223 3223 3223 3223 3223 3223 3223 3223 3222
3191 3191 3192 3192 3193 3193 3193 3194 3194 3194 3194 3194 3194 3194 3194 3194 3193 3193 3192 3191 3191 3195 3197 3197 3198 3200 3201 3202 3203 3204 3205 3206 3206 3207 3209 3210 3211 3212 3212 3213 3213 3214 3215 3216 3216 3217 3217 3218 3218 3218 3219 3219 3219 3219 3219 3218 3218 3219 3219 3220 3221 3221 3222 3223 3223 3224 3225 3225 3225 3225 3225 3225 3225 3225 3225 3224 3224 3224 3224 3225 3225 3225 3224 3224 3224
3192 3192 3192 3192 3193 3193 3194 3194 3194 3194 3194 3194 3194 3194 3194 3194 3193 3193 3192 3191 3193 3196 3199 3197 3198 3201 3202 3202 3204 3204 3205 3206 3207 3208 3209 3211 3212 3212 3213 3214 3214 3215 3216 3217 3217 3218 3218 3219 3219 3220 3220 3220 3220 3220 3219 3219 3219 3220 3220 3221 3222 3223 3224 3224 3225 3226 3226 3226 3226 3226 3226 3226 3226 3226 3226 3226 3226 3226 3226 3226 3226 3226 3226 3225 3225
3192 3192 3193 3193 3193 3193 3194 3194 3194 3195 3194 3194 3194 3194 3194 3194 3194 3193 3192 3192 3193 3197 3199 3198 3200 3201 3201 3202 3204 3205 3205 3206 3207 3208 3210 3211 3212 3213 3214 3215 3215 3216 3217 3218 3218 3219 3219 3220 3220 3221 3221 3221 3221 3221 3220 3220 3220 3221 3221 3223 3224 3225 3225 3226 3226 3227 3227 3227 3227 3228 3228 3228 3228 3228 3228 3227 3227 3227 3227 3227 3227 3227 3227 3227 3226
3192 3193 3193 3193 3193 3194 3194 3195 3195 3195 3195 3195 3194 3194 3194 3194 3194 3194 3193 3192 3193 3196 3199 3200 3201 3201 3201 3202 3204 3205 3206 3207 3208 3209 3210 3212 3213 3214 3215 3216 3216 3217 3218 3219 3219 3220 3220 3221 3221 3222 3222 3222 3222 3222 3221 3222 3222 3222 3223 3224 3225 3226 3227 3227 3228 3228 3228 3228 3229 3229 3229 3229 3229 3229 3229 3228 3228 3228 3228 3228 3228 3228 3228 3228 3228
3193 3194 3194 3194 3194 3194 3195 3195 3195 3195 3195 3195 3195 3195 3194 3194 3194 3194 3194 3193 3194 3196 3198 3201 3202 3202 3202 3203 3204 3205 3206 3207 3209 3210 3211 3212 3213 3215 3216 3217 3218 3218 3219 3220 3220 3221 3221 3222 3222 3223 3223 3223 3223 3223 3223 3223 3223 3224 3225 3226 3227 3228 3228 3229 3229 3229 3229 3229 3230 3230 3230 3230 3230 3230 3230 3230 3229 3229 3229 3229 3229 3230 3230 3229 3229
3194 3194 3195 3195 3195 3195 3195 3195 3196 3195 3195 3195 3195 3195 3195 3195 3195 3195 3195 3195 3195 3195 3197 3200 3202 3203 3204 3205 3206 3206 3207 3208 3210 3211 3213 3213 3215 3216 3217 3218 3219 3220 3220 3221 3221 3221 3222 3222 3223 3224 3224 3223 3223 3223 3224 3225 3225 3225 3226 3227 3228 3229 3230 3230 3230 3230 3230 3231 3231 3231 3231 3231 3231 3231 3231 3231 3230 3230 3230 3231 3231 3231 3231 3231 3231
3194 3195 3195 3195 3195 3195 3196 3196 3196 3196 3196 3196 3196 3196 3196 3196 3196 3197 3197 3196 3196 3196 3196 3198 3201 3203 3204 3206 3207 3208 3208 3209 3211 3212 3214 3215 3216 3217 3218 3219 3220 3221 3222 3222 3222 3223 3223 3223 3224 3224 3224 3224 3224 3225 3225 3225 3226 3227 3228 3229 3230 3231 3231 3231 3231 3232 3232 3232 3232 3232 3232 3232 3232 3232 3232 3232 3232 3232 3232 3232 3232 3232 3232 3232 3232
3195 3195 3196 3196 3196 3196 3196 3196 3196 3196 3196 3197 3197 3197 3197 3198 3198 3198 3198 3198 3198 3198 3198 3198 3200 3202 3203 3206 3208 3208 3209 3211 3212 3213 3215 3216 3217 3219 3220 3221 3221 3222 3222 3223 3223 3223 3224 3224 3225 3225 3225 3225 3226 3226 3226 3227 3228 3228 3229 3231 3231 3232 3232 3232 3233 3233 3233 3233 3233 3233 3233 3233 3233 3234 3233 3233 3233 3233 3233 3234 3234 3234 3234 3234 3234
3196 3196 3197 3197 3197 3197 3197 3197 3197 3197 3198 3198 3198 3199 3199 3199 3199 3200 3200 3200 3200 3200 3200 3200 3201 3202 3203 3205 3207 3209 3210 3212 3213 3215 3216 3218 3219 3220 3221 3222 3222 3223 3223 3224 3224 3224 3224 3225 3225 3226 3226 3227 3227 3227 3227 3228 3229 3230 3231 3232 3233 3233 3233 3234 3234 3234 3234 3234 3234 3234 3234 3234 3235 3235 3234 3234 3234 3235 3235 3235 3235 3235 3235 3235 3235
3196 3197 3197 3198 3198 3198 3198 3198 3198 3198 3198 3199 3199 3200 3201 3201 3201 3201 3201 3201 3202 3202 3202 3203 3204 3204 3205 3207 3208 3210 3212 3213 3215 3216 3217 3219 3220 3221 3222 3223 3223 3223 3224 3225 3225 3225 3225 3226 3226 3227 3227 3228 3228 3228 3228 3230 3230 3231 3232 3233 3234 3234 3234 3235 3235 3235 3235 3235 3235 3235 3235 3235 3236 3236 3236 3236 3236 3236 3236 3237 3237 3237 3237 3237 3236
3197 3198 3198 3199 3199 3199 3199 3199 3199 3199 3199 3200 3200 3201 3202 3202 3202 3202 3202 3203 3204 3204 3205 3205 3206 3207 3208 3209 3211 3212 3214 3215 3216 3218 3219 3220 3221 3222 3223 3223 3224 3224 3225 3225 3226 3226 3226 3227 3227 3228 3228 3229 3228 3229 3229 3231 3232 3233 3234 3234 3235 3236 3236 3236 3237 3237 3236 3236 3236 3236 3236 3237 3237 3237 3237 3237 3237 3238 3238 3238 3238 3238 3238 3238 3238
3198 3198 3199 3199 3199 3199 3200 3200 3200 3200 3200 3201 3201 3202 3202 3203 3203 3204 3204 3205 3205 3206 3207 3207 3208 3209 3210 3211 3213 3214 3215 3217 3218 3219 3220 3221 3222 3222 3223 3224 3224 3225 3225 3226 3226 3227 3227 3227 3228 3229 3229 3229 3229 3230 3231 3232 3233 3234 3235 3236 3236 3237 3237 3237 3238 3238 3237 3237 3237 3237 3238 3238 3238 3239 3239 3239 3239 3239 3239 3240 3240 3240 3239 3239 3239
3198 3199 3199 3200 3200 3200 3201 3201 3201 3201 3201 3202 3203 3203 3203 3204 3205 3205 3206 3207 3207 3208 3209 3209 3210 3211 3212 3213 3214 3215 3217 3218 3219 3220 3221 3222 3222 3223 3224 3224 3225 3225 3226 3226 3227 3227 3228 3228 3229 3230 3231 3231 3231 3231 3232 3233 3234 3235 3236 3237 3237 3237 3238 3239 3239 3239 3238 3238 3238 3238 3239 3240 3240 3240 3240 3240 3240 3241 3241 3241 3241 3241 3241 3240 3240
3199 3200 3200 3201 3201 3201 3202 3202 3202 3202 3203 3203 3204 3204 3204 3205 3206 3207 3208 3208 3209 3210 3211 3211 3212 3213 3213 3214 3215 3216 3217 3219 3220 3221 3222 3222 3223 3224 3224 3225 3225 3226 3227 3227 3227 3228 3228 3229 3230 3231 3232 3232 3232 3233 3234 3235 3236 3236 3237 3238 3238 3239 3239 3240 3240 3239 3239 3239 3239 3240 3240 3241 3241 3241 3241 3242 3242 3242 3242 3242 3242 3242 3242 3242 3241
3200 3200 3201 3202 3202 3202 3203 3203 3203 3204 3204 3204 3205 3205 3206 3206 3207 3208 3209 3210 3211 3212 3212 3213 3214 3214 3215 3215 3216 3217 3218 3219 3220 3221 3222 3223 3224 3224 3225 3226 3226 3227 3228 3228 3228 3229 3229 3230 3231 3232 3233 3233 3234 3235 3235 3236 3237 3238 3239 3239 3239 3240 3241 3241 3240 3240 3240 3240 3240 3241 3242 3242 3242 3242 3243 3243 3243 3243 3243 3244 3244 3243 3243 3243 3243
3200 3201 3202 3202 3203 3203 3204 3204 3205 3205 3205 3206 3206 3207 3207 3208 3209 3210 3211 3211 3212 3213 3214 3214 3215 3216 3216 3217 3217 3218 3219 3219 3220 3221 3222 3223 3224 3225 3225 3226 3227 3228 3228 3229 3229 3230 3230 3231 3232 3233 3234 3234 3235 3236 3237 3238 3239 3240 3240 3241 3241 3241 3242 3241 3241 3241 3241 3241 3241 3242 3243 3243 3243 3243 3244 3244 3244 3245 3245 3245 3245 3245 3245 3244 3244
3201 3202 3202 3203 3204 3204 3205 3205 3206 3206 3206 3207 3207 3208 3208 3209 3210 3211 3212 3213 3213 3214 3215 3216 3216 3217 3218 3218 3219 3219 3220 3220 3221 3222 3223 3224 3224 3225 3226 3227 3228 3229 3229 3230 3230 3231 3232 3233 3234 3234 3235 3236 3237 3238 3239 3240 3240 3241 3242 3242 3242 3243 3243 3242 3242 3242 3242 3242 3243 3243 3244 3244 3244 3244 3245 3245 3246 3246 3246 3246 3246 3246 3246 3245 3245
3201 3202 3203 3203 3204 3205 3205 3206 3207 3207 3207 3208 3208 3209 3210 3211 3212 3212 3213 3214 3215 3215 3216 3217 3217 3218 3219 3219 3220 3221 3221 3222 3222 3223 3224 3225 3225 3226 3227 3228 3229 3229 3230 3231 3231 3232 3233 3234 3235 3235 3236 3237 3238 3239 3240 3241 3242 3243 3243 3243 3244 3244 3244 3243 3243 3243 3243 3243 3244 3244 3244 3245 3245 3246 3246 3246 3247 3247 3247 3247 3247 3247 3247 3246 3246
3201 3202 3203 3204 3204 3205 3206 3207 3208 3208 3208 3209 3209 3210 3211 3212 3213 3214 3214 3215 3216 3216 3217 3218 3218 3219 3220 3221 3221 3222 3223 3223 3224 3224 3225 3226 3227 3228 3228 3229 3230 3230 3231 3231 3232 3233 3234 3235 3236 3236 3237 3238 3239 3240 3241 3242 3243 3244 3244 3244 3244 3245 3245 3244 3244 3244 3244 3244 3245 3245 3245 3246 3246 3247 3247 3248 3248 3248 3248 3248 3248 3248 3247 3247 3247
3202 3202 3204 3204 3205 3206 3206 3207 3208 3209 3209 3210 3210 3211 3212 3213 3214 3215 3215 3216 3217 3217 3218 3219 3219 3220 3221 3222 3223 3224 3224 3225 3225 3226 3227 3227 3228 3229 3229 3230 3231 3231 3232 3232 3233 3234 3235 3236 3237 3238 3238 3239 3240 3241 3242 3243 3244 3244 3245 3245 3245 3245 3245 3245 3245 3245 3245 3246 3246 3246 3246 3247 3247 3248 3248 3249 3249 3249 3249 3248 3248 3248 3248 3248 3247
3202 3203 3204 3205 3205 3206 3207 3208 3208 3209 3210 3210 3211 3212 3212 3213 3214 3215 3216 3217 3217 3218 3218 3219 3220 3221 3222 3223 3224 3225 3225 3226 3227 3227 3228 3228 3229 3230 3230 3231 3232 3232 3233 3234 3234 3235 3236 3237 3238 3239 3240 3240 3241 3242 3243 3244 3245 3245 3245 3245 3245 3245 3246 3246 3246 3246 3246 3247 3247 3247 3247 3247 3248 3248 3249 3249 3249 3249 3249 3249 3249 3248 3248 3248 3247
3202 3203 3204 3205 3205 3206 3207 3208 3208 3209 3210 3210 3211 3212 3213 3214 3215 3215 3216 3217 3218 3218 3219 3220 3221 3222 3223 3224 3225 3226 3226 3227 3228 3228 3229 3230 3230 3231 3231 3232 3233 3234 3234 3235 3235 3236 3237 3238 3239 3240 3241 3242 3243 3244 3245 3245 3245 3245 3246 3246 3246 3246 3246 3246 3247 3247 3247 3247 3248 3248 3248 3248 3248 3249 3249 3249 3250 3250 3250 3250 3249 3249 3248 3248 3247
3202 3203 3204 3205 3206 3206 3207 3208 3208 3209 3210 3211 3211 3213 3213 3214 3215 3216 3217 3217 3218 3219 3219 3220 3221 3222 3223 3224 3225 3226 3227 3227 3228 3229 3230 3230 3231 3232 3232 3233 3234 3235 3235 3236 3236 3237 3238 3239 3240 3241 3242 3243 3244 3245 3245 3245 3246 3246 3246 3246 3246 3246 3246 3247 3247 3248 3248 3248 3248 3248 3248 3248 3248 3249 3249 3250 3250 3250 3250 3250 3250 3249 3249 3248 3247
3202 3202 3204 3205 3206 3206 3207 3208 3208 3209 3210 3211 3212 3213 3214 3215 3216 3217 3217 3218 3218 3219 3220 3220 3221 3223 3223 3224 3225 3226 3227 3228 3229 3230 3231 3231 3232 3233 3234 3234 3235 3236 3236 3237 3237 3238 3239 3240 3241 3242 3243 3244 3245 3245 3245 3246 3246 3247 3247 3247 3247 3247 3247 3247 3248 3248 3249 3249 3249 3249 3249 3249 3249 3249 3250 3250 3250 3250 3250 3250 3250 3249 3249 3248 3247
3202 3203 3204 3205 3206 3207 3207 3208 3209 3209 3210 3211 3212 3213 3214 3216 3217 3217 3218 3219 3219 3220 3221 3222 3223 3223 3224 3225 3226 3227 3228 3228 3229 3230 3231 3232 3233 3234 3234 3235 3236 3237 3237 3238 3238 3239 3240 3241 3242 3243 3244 3245 3245 3245 3246 3246 3247 3247 3247 3248 3248 3248 3248 3248 3249 3249 3250 3250 3250 3250 3250 3250 3250 3250 3250 3250 3250 3250 3250 3250 3250 3249 3249 3248 3247
3202 3203 3204 3205 3206 3207 3207 3208 3209 3209 3210 3211 3212 3213 3214 3216 3216 3218 3218 3219 3220 3220 3221 3222 3223 3224 3225 3226 3226 3227 3228 3229 3230 3231 3232 3233 3234 3234 3235 3236 3237 3238 3238 3239 3239 3240 3241 3242 3243 3243 3244 3245 3245 3246 3246 3247 3247 3247 3247 3248 3248 3248 3248 3249 3249 3250 3250 3250 3250 3250 3250 3250 3250 3250 3250 3250 3250 3250 3250 3250 3249 3249 3248 3248 3247
3202 3203 3204 3205 3206 3207 3208 3208 3209 3209 3210 3211 3212 3213 3214 3215 3216 3217 3218 3219 3220 3221 3221 3222 3223 3224 3225 3226 3227 3228 3229 3229 3230 3231 3232 3233 3234 3235 3236 3237 3237 3238 3239 3239 3240 3241 3242 3243 3243 3244 3245 3245 3246 3246 3247 3247 3247 3247 3247 3248 3248 3248 3249 3249 3249 3250 3250 3250 3251 3251 3250 3250 3250 3250 3250 3250 3250 3250 3250 3250 3249 3249 3248 3248 3247
3202 3203 3204 3205 3206 3207 3208 3208 3209 3210 3210 3211 3212 3213 3214 3215 3216 3217 3217 3218 3220 3221 3222 3222 3223 3225 3226 3227 3227 3228 3229 3230 3231 3231 3232 3233 3234 3235 3236 3237 3237 3238 3239 3240 3241 3242 3242 3243 3244 3244 3245 3245 3246 3246 3247 3248 3248 3247 3247 3248 3248 3249 3249 3249 3249 3249 3250 3250 3250 3250 3250 3250 3250 3250 3250 3250 3250 3250 3250 3249 3249 3248 3248 3247 3247
3202 3204 3204 3205 3205 3206 3207 3208 3209 3210 3210 3211 3212 3213 3214 3215 3216 3217 3218 3219 3220 3221 3222 3223 3224 3225 3226 3227 3228 3229 3230 3230 3231 3232 3232 3233 3234 3235 3236 3237 3237 3238 3239 3240 3241 3242 3242 3243 3244 3244 3245 3245 3246 3246 3247 3248 3248 3247 3248 3248 3249 3249 3249 3249 3249 3249 3250 3250 3250 3250 3250 3250 3249 3249 3249 3249 3249 3249 3249 3249 3249 3248 3247 3247 3246
3202 3203 3204 3204 3205 3206 3207 3208 3209 3210 3211 3211 3212 3213 3214 3215 3216 3217 3218 3220 3221 3222 3223 3223 3224 3225 3226 3227 3228 3229 3230 3231 3231 3232 3233 3233 3234 3234 3235 3236 3237 3238 3239 3240 3241 3242 3242 3243 3244 3244 3245 3245 3246 3246 3247 3247 3248 3248 3248 3249 3249 3249 3249 3249 3249 3249 3249 3249 3249 3250 3250 3249 3249 3249 3249 3249 3249 3249 3249 3248 3248 3248 3247 3246 3245
3201 3202 3203 3204 3205 3205 3206 3207 3208 3209 3211 3212 3212 3213 3214 3215 3216 3217 3219 3220 3221 3222 3222 3223 3224 3225 3226 3227 3228 3229 3230 3231 3231 3232 3233 3233 3234 3234 3235 3236 3237 3238 3239 3240 3241 3241 3242 3243 3243 3244 3245 3245 3246 3246 3247 3247 3248 3248 3249 3249 3249 3249 3249 3249 3249 3249 3249 3249 3249 3249 3249 3249 3249 3249 3249 3248 3249 3249 3248 3248 3247 3247 3246 3245 3244
3200 3201 3202 3204 3204 3205 3206 3207 3208 3209 3210 3211 3212 3213 3214 3215 3216 3217 3218 3219 3220 3221 3222 3223 3224 3225 3226 3227 3228 3229 3230 3231 3231 3232 3233 3233 3234 3235 3236 3236 3237 3238 3239 3240 3240 3241 3242 3243 3243 3244 3244 3245 3245 3246 3246 3247 3247 3248 3249 3249 3249 3249 3249 3249 3249 3249 3249 3249 3249 3249 3249 3249 3249 3249 3248 3248 3248 3248 3248 3247 3246 3246 3245 3244 3243
3199 3200 3202 3203 3204 3204 3205 3206 3207 3208 3209 3210 3211 3213 3214 3215 3216 3217 3218 3219 3219 3220 3221 3222 3223 3224 3225 3227 3228 3229 3230 3231 3231 3232 3233 3233 3234 3235 3236 3237 3237 3238 3239 3239 3240 3241 3242 3242 3243 3243 3244 3244 3245 3246 3246 3247 3247 3248 3248 3249 3249 3249 3249 3249 3249 3249 3249 3249 3249 3248 3248 3248 3248 3248 3248 3248 3248 3247 3247 3246 3245 3245 3244 3243 3243
3198 3199 3200 3202 3203 3204 3205 3206 3207 3208 3209 3210 3211 3212 3213 3214 3216 3217 3217 3218 3219 3220 3221 3221 3223 3224 3225 3226 3227 3228 3229 3230 3231 3232 3232 3233 3234 3235 3236 3236 3237 3238 3238 3239 3239 3240 3241 3241 3242 3242 3243 3244 3244 3245 3246 3246 3247 3247 3248 3248 3248 3248 3249 3249 3249 3249 3249 3249 3249 3248 3248 3248 3248 3247 3247 3247 3247 3246 3246 3245 3245 3244 3243 3243 3242